TimeCST,TemperatureF,Dew PointF,Humidity,Sea Level PressureIn,VisibilityMPH,Wind Direction,Wind SpeedMPH,Gust SpeedMPH,PrecipitationIn,Events,Conditions,WindDirDegrees,DateUTC
12:53 AM,37.9,7.0,28,30.29,10.0,West,3.5,-,N/A,,Clear,260,2012-11-12 06:53:00
1:53 AM,37.0,7.0,29,30.31,10.0,WSW,8.1,-,N/A,,Clear,240,2012-11-12 07:53:00
2:53 AM,35.1,7.0,31,30.31,10.0,WSW,6.9,-,N/A,,Clear,240,2012-11-12 08:53:00
3:53 AM,34.0,6.1,31,30.32,10.0,SW,6.9,-,N/A,,Clear,230,2012-11-12 09:53:00
4:53 AM,36.0,5.0,27,30.34,10.0,WSW,6.9,-,N/A,,Clear,250,2012-11-12 10:53:00
5:53 AM,35.1,5.0,28,30.37,10.0,WSW,5.8,-,N/A,,Clear,240,2012-11-12 11:53:00
6:53 AM,35.1,3.0,26,30.38,10.0,West,8.1,-,N/A,,Clear,280,2012-11-12 12:53:00
7:53 AM,35.1,6.1,30,30.43,10.0,WSW,8.1,-,N/A,,Clear,240,2012-11-12 13:53:00
8:53 AM,43.0,5.0,21,30.45,10.0,WSW,5.8,-,N/A,,Clear,240,2012-11-12 14:53:00
9:53 AM,46.9,1.9,16,30.45,10.0,Variable,3.5,-,N/A,,Clear,0,2012-11-12 15:53:00
10:53 AM,50.0,1.9,14,30.43,10.0,NNW,6.9,-,N/A,,Clear,340,2012-11-12 16:53:00
11:53 AM,51.1,1.0,13,30.43,10.0,Variable,4.6,-,N/A,,Clear,0,2012-11-12 17:53:00
12:53 PM,54.0,1.9,12,30.39,10.0,NNE,5.8,-,N/A,,Clear,20,2012-11-12 18:53:00
1:53 PM,53.1,1.0,12,30.37,10.0,Calm,Calm,-,N/A,,Clear,0,2012-11-12 19:53:00
2:53 PM,54.0,1.0,12,30.35,10.0,East,3.5,-,N/A,,Clear,80,2012-11-12 20:53:00
3:53 PM,55.9,1.9,11,30.32,10.0,Calm,Calm,-,N/A,,Clear,0,2012-11-12 21:53:00
4:53 PM,54.0,1.9,12,30.32,10.0,Variable,5.8,-,N/A,,Clear,0,2012-11-12 22:53:00
5:53 PM,50.0,6.1,17,30.33,10.0,ENE,5.8,-,N/A,,Clear,70,2012-11-12 23:53:00
6:53 PM,48.0,7.0,19,30.34,10.0,East,6.9,-,N/A,,Clear,90,2012-11-13 00:53:00
7:53 PM,48.0,6.1,18,30.35,10.0,ESE,5.8,-,N/A,,Clear,120,2012-11-13 01:53:00
8:53 PM,45.0,7.0,21,30.35,10.0,SSE,4.6,-,N/A,,Clear,160,2012-11-13 02:53:00
9:53 PM,42.1,7.0,24,30.37,10.0,SSE,4.6,-,N/A,,Clear,160,2012-11-13 03:53:00
10:53 PM,42.1,9.0,26,30.37,10.0,SSE,5.8,-,N/A,,Clear,160,2012-11-13 04:53:00
11:53 PM,43.0,10.9,27,30.34,10.0,SE,6.9,-,N/A,,Clear,140,2012-11-13 05:53:00